Location: Almena City Lake
(39.8850°N, 99.6804°W)
Time: 18:52:06
(UTC+00:00)

Cosmos 1943 - Pass Details

Date: 18 February 2020
Orbit: 832 x 851 km, 71.0° (Epoch: 28 March)

Event Time Altitude Azimuth Distance (km) Brightness Sun altitude
Rises 11:28:36 0° 190° (S) 3,360 6.2 -23.6°
Reaches altitude 10° 11:31:03 10° 186° (S) 2,431 5.5 -23.1°
Maximum altitude 11:36:30 58° 109° (ESE) 964 3.7 -22.1°
Drops below altitude 10° 11:42:00 10° 31° (NNE) 2,454 6.0 -21.0°
Sets 11:44:29 0° 28° (NNE) 3,395 6.7 -20.5°
